sat.trackr.live / text

‹ back to catalog

CHINASAT 9C

NORAD 64470 · 2025-132A

PAYLOAD ACTIVE UNKNOWN

§ Identity

Operator
Country
PRC
Launch date
2025-06-20
Launch site
XICLF
Launch vehicle
Mass (kg)
RCS (m²)

Purposes: comms

External: N2YO · Heavens-Above · Gunter

§ Orbital elements

Epoch: 2026-05-25T02:28:15.135744Z

Period
1,436.08 min
Inclination
0.0265°
Eccentricity
0.0003006
Mean motion
1.00272849 rev/d
Perigee alt
35,773.6 km
Apogee alt
35,799.0 km
Semi-major
42,164.4 km
B*
0.0000e+0
RAAN
82.9167°
Arg perigee
336.2684°
Mean anomaly
312.7813°
Rev number
391

§ Raw data

CHINASAT 9C1 64470U 25132A   26145.10295296 -.00000250  00000+0  00000+0 0  99922 64470   0.0265  82.9167 0003006 336.2684 312.7813  1.00272849  3911

JSON: /api/v1/satellites/64470 · /tle

For live sub-satellite position, see the globe view (requires WebGL).

§ Visibility from observer

Set your observer location to see the next 7 days of passes ≥ 10°. The values pass through the URL so the page stays shareable.

No JS? Fill the form by hand. The geolocation button needs JavaScript.